This demonstration page uses our WeatherBlox Daily Observations layout. Learn more.

Left ArrowRight Arrow

Hourly Observations for September 28, 2019

Temp ( °F °C ) Dew Point ( °F °C ) Humidity (%) Winds ( mph kmh ) Pressure ( in mb ) Visibility ( mi km ) Precip ( " mm )
12:15 am 00:15 Clear 68 20 61 16 78 78 Calm 30.10 1019 10 16 0.00 0.00
12:35 am 00:35 Clear 66 19 61 16 83 83 Calm 30.10 1019 10 16 0.00 0.00
12:55 am 00:55 Clear 64 18 61 16 88 88 SW 3 6 30.10 1019 10 16 0.00 0.00
1:15 am 01:15 Clear 66 19 61 16 83 83 S 3 6 30.10 1019 10 16 0.00 0.00
1:35 am 01:35 Clear 64 18 59 15 83 83 Calm 30.11 1020 10 16 0.00 0.00
1:55 am 01:55 Clear 64 18 59 15 83 83 S 3 6 30.11 1020 10 16 0.00 0.00
2:15 am 02:15 Clear 64 18 59 15 83 83 S 6 9 30.10 1019 10 16 0.00 0.00
2:35 am 02:35 Partly Cloudy 63 17 59 15 88 88 S 3 6 30.11 1019 10 16 0.00 0.00
2:55 am 02:55 Partly Cloudy 63 17 59 15 88 88 Calm 30.11 1019 10 16 0.00 0.00
3:15 am 03:15 Mostly Cloudy 64 18 59 15 83 83 SSE 6 9 30.09 1019 10 16 0.00 0.00
3:35 am 03:35 Cloudy 64 18 59 15 83 83 Calm 30.09 1019 10 16 0.00 0.00
3:55 am 03:55 Cloudy 64 18 59 15 83 83 SSE 6 9 30.09 1019 10 16 0.00 0.00
4:15 am 04:15 Mostly Cloudy 64 18 59 15 83 83 S 8 13 30.09 1019 10 16 0.00 0.00
4:35 am 04:35 Cloudy 64 18 61 16 88 88 Calm 30.09 1019 10 16 0.00 0.00
4:55 am 04:55 Cloudy 64 18 61 16 88 88 SSE 3 6 30.10 1019 10 16 0.00 0.00
5:15 am 05:15 Cloudy 66 19 61 16 83 83 SSE 6 9 30.10 1019 10 16 0.00 0.00
5:35 am 05:35 Cloudy 66 19 61 16 83 83 SSE 6 9 30.11 1020 10 16 0.00 0.00
5:55 am 05:55 Cloudy 68 20 61 16 78 78 S 6 9 30.11 1020 10 16 0.00 0.00
6:15 am 06:15 Cloudy 68 20 63 17 83 83 SSE 6 9 30.11 1020 10 16 0.00 0.00
6:35 am 06:35 Cloudy 68 20 63 17 83 83 SSE 8 13 30.11 1020 10 16 0.00 0.00
6:55 am 06:55 Cloudy 68 20 63 17 83 83 S 5 7 30.11 1020 10 16 0.00 0.00
7:15 am 07:15 Cloudy 66 19 63 17 88 88 Calm 30.11 1020 10 16 0.00 0.00
7:35 am 07:35 Cloudy 66 19 63 17 88 88 Calm 30.11 1020 10 16 0.00 0.00
7:55 am 07:55 Cloudy 66 19 63 17 88 88 SSW 3 6 30.12 1020 10 16 0.00 0.00
8:15 am 08:15 Cloudy 68 20 63 17 83 83 Calm 30.12 1020 10 16 0.00 0.00
8:35 am 08:35 Cloudy 68 20 64 18 88 88 S 6 9 30.12 1020 10 16 0.00 0.00
8:55 am 08:55 Cloudy 68 20 64 18 88 88 SSW 7 11 30.12 1020 10 16 0.00 0.00
9:15 am 09:15 Cloudy 70 21 66 19 88 88 S 9 15 30.12 1020 10 16 0.00 0.00
9:35 am 09:35 Cloudy 70 21 66 19 88 88 SSW 8 13 30.12 1020 10 16 0.00 0.00
9:55 am 09:55 Cloudy 72 22 66 19 83 83 S 7 11 30.12 1020 10 16 0.00 0.00
10:15 am 10:15 Cloudy 72 22 66 19 83 83 S 5 7 30.12 1020 10 16 0.00 0.00
10:35 am 10:35 Mostly Cloudy 72 22 68 20 88 88 SW 5 7 30.12 1020 10 16 0.00 0.00
10:55 am 10:55 Mostly Cloudy 72 22 68 20 88 88 SW 3 6 30.12 1020 10 16 0.00 0.00
11:15 am 11:15 Partly Cloudy 75 24 68 20 78 78 WSW 5 7 30.12 1020 10 16 0.00 0.00
11:35 am 11:35 Partly Cloudy 79 26 68 20 70 70 S 8 13 30.11 1020 10 16 0.00 0.00
11:55 am 11:55 Sunny 79 26 68 20 70 70 S 10 17 30.10 1019 10 16 0.00 0.00
12:15 pm 12:15 Mostly Cloudy with Nearby Thunderstorms 79 26 68 20 70 70 S 7 11 30.10 1019 10 16 0.00 0.00
12:35 pm 12:35 Partly Cloudy 81 27 70 21 70 70 WSW 6 9 30.09 1019 10 16 0.00 0.00
12:55 pm 12:55 Sunny with Nearby Thunderstorms 81 27 70 21 70 70 SW 5 7 30.09 1019 N/A 0.00 0.00
1:15 pm 13:15 Sunny 82 28 70 21 66 66 S 6 9 30.09 1019 N/A 0.00 0.00
1:35 pm 13:35 Sunny 82 28 70 21 66 66 S 7 11 30.09 1019 N/A 0.00 0.00
2:15 pm 14:15 Sunny 82 28 70 21 66 66 S 6 9 30.07 1018 10 16 0.00 0.00
2:35 pm 14:35 Sunny 82 28 70 21 66 66 S 10 17 30.07 1018 10 16 0.00 0.00
2:55 pm 14:55 Mostly Cloudy 82 28 70 21 66 66 S 8 13 30.06 1018 10 16 0.00 0.00
3:15 pm 15:15 Partly Cloudy 82 28 70 21 66 66 S 7 11 30.05 1018 10 16 0.00 0.00
3:35 pm 15:35 Sunny 82 28 70 21 66 66 S 7 11 30.05 1018 10 16 0.00 0.00
3:55 pm 15:55 Sunny 84 29 72 22 66 66 SSE 7 11 30.04 1017 10 16 0.00 0.00
4:15 pm 16:15 Sunny 86 30 72 22 62 62 SSW 10 17 30.05 1018 10 16 0.00 0.00
4:35 pm 16:35 Sunny 86 30 72 22 62 62 S 9 15 30.04 1017 10 16 0.00 0.00
4:55 pm 16:55 Sunny 86 30 72 22 62 62 S 10 17 30.04 1017 N/A 0.00 0.00
5:15 pm 17:15 Sunny 84 29 72 22 66 66 SSW 12 19 30.05 1018 N/A 0.00 0.00
5:35 pm 17:35 Sunny 84 29 72 22 66 66 SW 10 17 30.07 1018 N/A 0.00 0.00
5:55 pm 17:55 Sunny 82 28 72 22 70 70 SW 9 15 30.06 1018 N/A 0.00 0.00
6:15 pm 18:15 Sunny 81 27 72 22 74 74 SW 5 7 30.06 1018 N/A 0.00 0.00
6:35 pm 18:35 Sunny 81 27 70 21 70 70 WSW 8 13 30.05 1018 N/A 0.00 0.00
6:55 pm 18:55 Sunny 79 26 68 20 70 70 W 5 7 30.05 1018 N/A 0.00 0.00
7:15 pm 19:15 Clear 79 26 68 20 70 70 WSW 5 7 30.05 1018 N/A 0.00 0.00
7:35 pm 19:35 Clear 77 25 68 20 74 74 WSW 5 7 30.05 1018 N/A 0.00 0.00
7:55 pm 19:55 Clear 77 25 66 19 69 69 WSW 5 7 30.06 1018 N/A 0.00 0.00
8:15 pm 20:15 Clear 75 24 66 19 74 74 WSW 5 7 30.07 1018 N/A 0.00 0.00
8:35 pm 20:35 Clear 73 23 66 19 78 78 WSW 5 7 30.07 1018 10 16 0.00 0.00
8:55 pm 20:55 Clear 73 23 66 19 78 78 SSW 5 7 30.08 1019 10 16 0.00 0.00
9:15 pm 21:15 Clear 73 23 66 19 78 78 SW 3 6 30.09 1019 10 16 0.00 0.00
9:35 pm 21:35 Clear 73 23 66 19 78 78 SSW 5 7 30.10 1019 10 16 0.00 0.00
9:55 pm 21:55 Clear 73 23 66 19 78 78 Calm 30.10 1019 10 16 0.00 0.00
10:15 pm 22:15 Clear 73 23 66 19 78 78 Calm 30.11 1020 10 16 0.00 0.00
10:35 pm 22:35 Clear 73 23 66 19 78 78 Calm 30.11 1020 10 16 0.00 0.00
10:55 pm 22:55 Clear 73 23 66 19 78 78 Calm 30.11 1020 10 16 0.00 0.00
11:15 pm 23:15 Clear 72 22 66 19 83 83 Calm 30.12 1020 10 16 0.00 0.00
11:35 pm 23:35 Clear 72 22 66 19 83 83 Calm 30.12 1020 10 16 0.00 0.00
11:55 pm 23:55 Clear 70 21 66 19 88 88 Calm 30.12 1020 10 16 0.00 0.00

Powered by AerisWeather